CW0406 Weather Reports


Display with metric or nautical units.
time (UTC)temp
F
wind
direction
speed
MPH
gust
MPH
rain 1hr
in
rain 24hr
in
rain mn
in
humidity
%
barometer
mb
20260503015438 65 229 0.0 0.0 0.00 0.00 0.00 32 1003.5
20260503014938 66 229 0.0 0.0 0.00 0.00 0.00 31 1003.5
20260503013930 67 229 0.0 0.0 0.00 0.00 0.00 31 1003.5
20260503012924 68 229 0.0 0.0 0.00 0.00 0.00 28 1003.6
20260503012417 69 229 0.0 0.0 0.00 0.00 0.00 27 1003.5
20260503011918 70 229 0.0 0.0 0.00 0.00 0.00 25 1003.5
20260503011351 70 229 0.0 0.0 0.00 0.00 0.00 24 1003.6
20260503005818 71 229 0.0 0.0 0.00 0.00 0.00 21 1003.8
20260503005309 71 229 0.0 0.0 0.00 0.00 0.00 20 1003.8
20260503004804 71 229 0.0 0.0 0.00 0.00 0.00 20 1003.9
20260503004303 72 229 0.0 0.0 0.00 0.00 0.00 20 1003.8
20260503003224 72 229 0.0 0.0 0.00 0.00 0.00 15 1003.8
20260503002711 73 229 0.0 4.0 0.00 0.00 0.00 16 1003.9
20260503002151 73 229 0.0 6.0 0.00 0.00 0.00 15 1003.9
20260503001620 73 255 0.0 12.0 0.00 0.00 0.00 14 1003.9
20260503001113 74 250 4.0 12.0 0.00 0.00 0.00 13 1003.9
20260503000115 75 239 0.0 12.0 0.00 0.00 0.00 13 1003.9
20260502235604 76 222 2.0 13.0 0.00 0.00 0.00 13 1003.9
20260502235101 76 253 4.0 14.0 0.00 0.00 0.00 12 1003.9
20260502234601 77 250 4.0 15.0 0.00 0.00 0.00 11 1004.0
20260502233558 76 236 6.0 13.0 0.00 0.00 0.00 12 1004.1
20260502233057 76 270 7.0 16.0 0.00 0.00 0.00 12 1004.0
20260502232557 76 239 7.0 24.0 0.00 0.00 0.00 11 1004.1
20260502232055 76 199 10.0 24.0 0.00 0.00 0.00 12 1004.1
20260502231556 76 202 11.0 23.0 0.00 0.00 0.00 12 1004.0
20260502231053 75 251 7.0 15.0 0.00 0.00 0.00 13 1004.1
20260502230554 75 198 7.0 17.0 0.00 0.00 0.00 14 1004.1
20260502230052 76 274 6.0 17.0 0.00 0.00 0.00 13 1004.2
20260502225551 76 247 6.0 13.0 0.00 0.00 0.00 13 1004.2
20260502225051 76 220 4.0 15.0 0.00 0.00 0.00 12 1004.2
20260502224549 76 254 6.0 15.0 0.00 0.00 0.00 13 1004.3
20260502222543 76 203 5.0 18.0 0.00 0.00 0.00 13 1004.3
20260502222043 75 209 2.0 14.0 0.00 0.00 0.00 14 1004.5
20260502221542 75 270 9.0 14.0 0.00 0.00 0.00 14 1004.6
20260502221041 74 229 7.0 15.0 0.00 0.00 0.00 15 1004.7
20260502220542 74 201 6.0 15.0 0.00 0.00 0.00 14 1004.7
20260502220037 74 248 6.0 15.0 0.00 0.00 0.00 14 1004.7
20260502215538 75 251 5.0 14.0 0.00 0.00 0.00 15 1004.8
20260502215037 75 232 7.0 12.0 0.00 0.00 0.00 15 1004.9
20260502214536 74 239 7.0 14.0 0.00 0.00 0.00 16 1005.0
20260502214034 74 254 6.0 14.0 0.00 0.00 0.00 15 1004.9
20260502213533 74 264 7.0 14.0 0.00 0.00 0.00 16 1005.0
20260502213033 74 243 6.0 14.0 0.00 0.00 0.00 16 1005.0
20260502212532 74 222 7.0 13.0 0.00 0.00 0.00 16 1005.2
20260502212031 74 196 9.0 13.0 0.00 0.00 0.00 16 1005.2
20260502211530 74 261 10.0 19.0 0.00 0.00 0.00 16 1005.3
20260502211029 74 196 10.0 19.0 0.00 0.00 0.00 16 1005.3
20260502210528 73 234 7.0 19.0 0.00 0.00 0.00 17 1005.3
20260502210028 73 174 7.0 14.0 0.00 0.00 0.00 16 1005.3
20260502205528 74 343 5.0 11.0 0.00 0.00 0.00 16 1005.4
20260502205026 74 253 5.0 13.0 0.00 0.00 0.00 16 1005.5
20260502204525 74 239 5.0 16.0 0.00 0.00 0.00 17 1005.6
20260502204024 74 195 6.0 16.0 0.00 0.00 0.00 16 1005.6
20260502203523 74 216 9.0 20.0 0.00 0.00 0.00 17 1005.6
20260502203022 74 241 7.0 20.0 0.00 0.00 0.00 17 1005.7
20260502202523 73 300 8.0 14.0 0.00 0.00 0.00 17 1005.7
20260502201519 72 223 5.0 18.0 0.00 0.00 0.00 17 1005.8
20260502201017 72 206 7.0 18.0 0.00 0.00 0.00 18 1005.8
20260502200518 71 226 10.0 17.0 0.00 0.00 0.00 18 1006.0
20260502200014 71 258 7.0 16.0 0.00 0.00 0.00 19 1006.0
20260502194511 71 240 10.0 15.0 0.00 0.00 0.00 18 1006.1
20260502193008 70 234 9.0 12.0 0.00 0.00 0.00 22 1006.3
20260502192506 69 262 7.0 11.0 0.00 0.00 0.00 22 1006.4
20260502192005 69 217 0.0 11.0 0.00 0.00 0.00 23 1006.5
20260502191504 68 208 2.0 9.0 0.00 0.00 0.00 25 1006.5
20260502191004 67 32 5.0 9.0 0.00 0.00 0.00 25 1006.5
20260502190503 67 30 3.0 9.0 0.00 0.00 0.00 25 1006.7
20260502190005 66 277 0.0 0.0 0.00 0.00 0.00 26 1006.7
20260502184954 66 277 0.0 9.0 0.00 0.00 0.00 27 1006.9
20260502184443 66 219 5.0 9.0 0.00 0.00 0.00 28 1007.0
20260502183939 65 57 4.0 7.0 0.00 0.00 0.00 26 1007.0
20260502183438 66 293 3.0 8.0 0.00 0.00 0.00 26 1007.1
20260502182435 65 327 6.0 9.0 0.00 0.00 0.00 28 1007.2
20260502181935 65 354 0.0 7.0 0.00 0.00 0.00 27 1007.2
20260502180924 64 54 0.0 9.0 0.00 0.00 0.00 28 1007.4
20260502180418 63 43 6.0 9.0 0.00 0.00 0.00 29 1007.4
20260502170225 56 7 0.0 3.0 0.00 0.00 0.00 50 1008.3
20260502164131 53 201 0.0 0.0 0.00 0.00 0.00 54 1008.6
20260502162028 51 201 0.0 0.0 0.00 0.00 0.00 57 1008.9
20260502161021 51 201 0.0 0.0 0.00 0.00 0.00 58 1009.0
20260502160517 50 201 0.0 3.0 0.00 0.00 0.00 59 1009.0
20260502152338 45 215 0.0 0.0 0.00 0.00 0.00 68 1009.5
20260502151824 44 215 0.0 0.0 0.00 0.00 0.00 70 1009.6
20260502151321 43 215 0.0 0.0 0.00 0.00 0.00 73 1009.6
20260502150753 43 215 0.0 0.0 0.00 0.00 0.00 74 1009.6
20260502150239 42 215 0.0 0.0 0.00 0.00 0.00 75 1009.7
20260502130405 32 215 0.0 0.0 0.00 0.00 0.00 87 1009.8
20260502123326 32 215 0.0 0.0 0.00 0.00 0.00 86 1009.7
20260502122819 32 215 0.0 0.0 0.00 0.00 0.00 85 1009.6
20260502122238 33 215 0.0 0.0 0.00 0.00 0.00 85 1009.7
20260502121715 32 215 0.0 0.0 0.00 0.00 0.00 85 1009.6
20260502121149 33 215 0.0 0.0 0.00 0.00 0.00 85 1009.6
20260502120637 33 215 0.0 0.0 0.00 0.00 0.00 85 1009.6
20260502120135 32 215 0.0 0.0 0.00 0.00 0.00 85 1009.6
20260502115629 32 215 0.0 0.0 0.00 0.00 0.00 86 1009.6
20260502115124 32 215 0.0 0.0 0.00 0.00 0.00 86 1009.6
20260502114619 32 215 0.0 0.0 0.00 0.00 0.00 85 1009.7
20260502113614 33 215 0.0 0.0 0.00 0.00 0.00 84 1009.7
20260502112607 33 215 0.0 0.0 0.00 0.00 0.00 84 1009.5
20260502112102 33 215 0.0 0.0 0.00 0.00 0.00 83 1009.6
20260502111600 34 215 0.0 0.0 0.00 0.00 0.00 83 1009.5
20260502110036 34 215 0.0 3.0 0.00 0.00 0.00 83 1009.5
20260502105529 34 215 3.0 3.0 0.00 0.00 0.00 83 1009.6
20260502105006 34 46 0.0 6.0 0.00 0.00 0.00 83 1009.6
20260502104446 34 46 0.0 6.0 0.00 0.00 0.00 82 1009.5
20260502102436 35 18 0.0 0.0 0.00 0.00 0.00 80 1009.5
20260502101933 35 18 0.0 0.0 0.00 0.00 0.00 80 1009.5
20260502101425 35 18 0.0 0.0 0.00 0.00 0.00 80 1009.5
20260502100923 35 18 0.0 0.0 0.00 0.00 0.00 80 1009.5
20260502100419 35 18 0.0 0.0 0.00 0.00 0.00 80 1009.5
20260502091255 36 18 0.0 0.0 0.00 0.00 0.00 78 1009.3
20260502090747 37 18 0.0 0.0 0.00 0.00 0.00 76 1009.3
20260502071525 41 18 0.0 5.0 0.00 0.00 0.00 67 1009.6
20260502071018 42 18 0.0 7.0 0.00 0.00 0.00 67 1009.6
20260502070520 42 18 4.0 7.0 0.00 0.00 0.00 67 1009.5
20260502070019 42 1 3.0 7.0 0.00 0.00 0.00 67 1009.6
20260502065501 42 59 0.0 0.0 0.00 0.00 0.00 66 1009.5
20260502063939 43 59 0.0 0.0 0.00 0.00 0.00 65 1009.5
20260502063437 43 59 0.0 0.0 0.00 0.00 0.00 64 1009.5
20260502062919 43 59 0.0 6.0 0.00 0.00 0.00 64 1009.3
20260502062414 44 59 0.0 6.0 0.00 0.00 0.00 64 1009.5
20260502061913 44 14 0.0 6.0 0.00 0.00 0.00 64 1009.3
20260502061407 44 39 0.0 6.0 0.00 0.00 0.00 64 1009.3
20260502060906 44 26 0.0 0.0 0.00 0.00 0.00 63 1009.3
20260502060405 44 26 0.0 0.0 0.00 0.00 0.00 63 1009.3
20260502055854 44 26 0.0 0.0 0.00 0.00 0.00 63 1009.2
20260502055325 44 26 0.0 3.0 0.00 0.00 0.00 63 1009.2
20260502054806 44 26 0.0 3.0 0.00 0.00 0.00 63 1009.2
20260502054303 44 26 0.0 3.0 0.00 0.00 0.00 63 1009.2
20260502053757 44 37 0.0 0.0 0.00 0.00 0.00 63 1009.1
20260502052731 46 37 0.0 0.0 0.00 0.00 0.00 61 1009.1
20260502052223 46 37 0.0 0.0 0.00 0.00 0.00 61 1009.1
20260502051654 46 37 0.0 0.0 0.00 0.00 0.00 60 1009.1
20260502051152 47 37 0.0 0.0 0.00 0.00 0.00 60 1009.2
20260502050640 47 37 0.0 0.0 0.00 0.00 0.00 59 1009.1
20260502050123 47 37 0.0 0.0 0.00 0.00 0.00 59 1009.1
20260502045545 47 37 0.0 0.0 0.00 0.00 0.00 59 1009.1
20260502045040 48 37 0.0 0.0 0.00 0.00 0.00 59 1009.0
20260502044541 48 37 0.0 0.0 0.00 0.00 0.00 58 1008.9
20260502044019 49 37 0.0 0.0 0.00 0.00 0.00 57 1008.9
20260502043518 49 37 0.0 3.0 0.00 0.00 0.00 57 1009.0
20260502042957 49 37 0.0 3.0 0.00 0.00 0.00 56 1008.9
20260502042447 49 37 1.0 3.0 0.00 0.00 0.00 56 1008.8
20260502041947 49 54 0.0 0.0 0.00 0.00 0.00 56 1008.6
20260502041437 49 54 0.0 0.0 0.00 0.00 0.00 55 1008.6
20260502040909 50 54 0.0 0.0 0.00 0.00 0.00 54 1008.5
20260502040402 50 54 0.0 0.0 0.00 0.00 0.00 53 1008.4
20260502035855 51 54 0.0 4.0 0.00 0.00 0.00 52 1008.4
20260502035349 51 54 0.0 4.0 0.00 0.00 0.00 52 1008.4
20260502034845 52 281 0.0 0.0 0.00 0.00 0.00 51 1008.3
20260502034327 52 281 0.0 5.0 0.00 0.00 0.00 51 1008.2
20260502033827 53 281 0.0 8.0 0.00 0.00 0.00 50 1008.1
20260502033301 53 281 0.0 9.0 0.00 0.00 0.00 50 1008.1
20260502032749 53 270 5.0 9.0 0.00 0.00 0.00 49 1007.9
20260502031739 54 14 0.0 5.0 0.00 0.00 0.00 47 1007.7
20260502031218 54 14 0.0 5.0 0.00 0.00 0.00 46 1007.6
20260502030709 55 358 0.0 4.0 0.00 0.00 0.00 46 1007.5
20260502025708 57 203 0.0 0.0 0.00 0.00 0.00 44 1007.2
20260502025149 57 203 0.0 0.0 0.00 0.00 0.00 43 1007.2
20260502024108 60 203 0.0 0.0 0.00 0.00 0.00 42 1007.0
20260502023606 60 203 0.0 0.0 0.00 0.00 0.00 41 1007.0
20260502023101 61 203 0.0 0.0 0.00 0.00 0.00 40 1007.0
20260502022559 62 203 0.0 0.0 0.00 0.00 0.00 40 1006.9
20260502022052 62 203 0.0 0.0 0.00 0.00 0.00 37 1006.9
20260502021552 63 203 0.0 0.0 0.00 0.00 0.00 37 1006.9
20260502021046 64 203 0.0 0.0 0.00 0.00 0.00 36 1006.9
20260502020531 65 203 0.0 0.0 0.00 0.00 0.00 33 1006.8
20260502020024 66 203 0.0 6.0 0.00 0.00 0.00 32 1006.7